Theta_e
293 293 293 293 293 293 293 294 294 294 294 293 294 295 295 295 295 294 294 294 295 296 297 297 298 298 299 300 300 300 300 301 302 302 303 302 302 302 302 301 301 301 301 302 303 304 304 305 306 307 308 309 309 309 309 310 310 310 309 310 310 310
292 292 292 293 293 293 293 294 294 294 294 294 294 294 294 294 294 293 294 293 294 294 294 295 295 296 297 298 298 299 299 300 300 301 300 302 301 301 300 300 300 300 300 300 301 301 302 302 303 303 305 306 306 307 307 307 307 307 307 307 307 307
292 292 292 292 292 292 293 293 293 293 293 293 293 294 294 294 294 294 294 293 293 292 293 294 293 294 295 294 295 296 297 298 298 298 299 296 298 299 298 298 299 299 299 299 299 299 300 301 301 301 302 302 303 304 305 305 305 305 305 305 305 305
291 292 292 292 292 292 292 292 293 293 292 292 292 293 293 293 293 293 292 293 292 292 292 292 291 292 292 292 293 293 294 294 295 295 294 295 297 296 297 297 298 298 298 298 299 299 299 299 300 301 301 300 300 301 303 303 303 303 303 303 302 303
290 290 290 291 290 291 291 292 292 292 291 291 291 291 291 291 291 291 291 292 292 292 291 290 291 290 290 290 292 291 292 293 292 292 293 294 295 294 295 296 296 296 296 296 297 298 298 299 299 300 300 300 300 300 301 302 301 301 301 300 301 300
289 291 291 291 291 291 291 291 291 291 291 290 291 291 290 291 290 290 290 290 290 291 290 290 290 290 290 291 291 291 291 291 291 291 291 292 292 292 293 292 293 293 294 294 295 295 296 296 296 297 298 299 300 300 300 300 300 300 300 300 300 299
290 290 290 290 289 289 290 290 290 290 290 290 290 290 290 290 290 290 290 290 291 291 291 291 291 291 291 291 291 291 291 290 290 290 291 291 291 292 292 292 292 292 292 293 294 295 295 295 295 296 297 297 298 298 299 299 299 299 299 299 299 296
288 289 289 289 289 289 289 289 289 289 289 290 289 289 289 290 289 290 290 290 290 291 291 291 291 291 291 290 291 290 290 290 290 290 290 290 291 291 291 291 291 292 292 292 293 293 294 294 295 295 295 296 296 296 297 297 297 297 298 298 298 298
289 289 288 288 288 288 289 289 289 289 289 289 289 289 289 289 288 289 289 289 289 290 290 290 290 290 290 290 290 290 290 290 290 290 290 290 290 290 290 291 291 291 291 292 292 292 293 293 293 295 295 296 296 296 295 295 295 295 296 296 297 297
288 287 288 288 288 288 288 288 288 288 288 288 289 288 288 288 288 288 288 288 289 289 289 289 289 289 289 289 289 290 290 290 290 290 290 289 290 290 290 290 290 291 290 291 291 292 292 292 292 293 294 294 295 295 294 294 294 294 295 295 295 295
287 286 287 287 287 288 288 288 288 288 288 288 288 287 288 287 287 287 288 288 288 289 289 289 289 289 289 289 289 289 289 289 289 289 289 290 290 290 290 290 289 289 290 290 290 290 291 291 292 293 293 293 294 294 293 293 293 293 293 294 294 294
286 286 287 287 287 287 287 287 287 287 287 287 287 287 287 287 286 286 287 287 288 288 288 288 288 288 288 288 288 288 288 288 288 288 288 289 289 289 289 289 289 289 289 289 290 290 290 291 292 290 291 292 293 293 294 293 293 293 293 293 293 293
286 286 286 286 286 286 286 286 286 286 286 287 287 286 286 286 286 286 286 287 287 287 287 287 287 287 287 287 287 287 287 287 287 287 287 288 288 288 288 289 289 289 290 289 290 290 290 291 291 290 292 293 294 293 293 292 292 292 292 292 292 292
286 286 286 286 286 286 286 286 286 286 287 286 286 286 286 285 286 286 286 287 287 287 287 286 286 286 286 286 286 286 286 286 286 286 286 287 287 287 287 287 288 288 289 289 289 289 289 290 290 291 292 293 293 293 292 292 292 292 292 292 292 292
286 286 285 286 286 286 286 285 285 286 286 286 286 285 285 285 286 286 286 287 286 286 286 286 286 286 286 286 285 285 285 285 285 285 286 286 287 286 286 287 287 287 288 288 288 288 289 289 290 291 292 292 293 293 293 293 292 292 291 292 292 292
285 285 285 285 285 285 285 284 285 285 285 285 285 284 285 285 286 286 286 286 286 286 286 285 285 285 285 285 285 285 285 285 285 286 286 286 286 286 286 286 286 287 287 287 288 288 288 288 289 291 291 292 292 293 293 292 292 292 292 292 292 292
285 284 285 285 285 285 284 285 285 285 284 284 284 284 284 285 285 286 286 286 286 286 285 285 285 284 285 285 285 284 285 285 285 285 285 286 286 285 286 286 286 286 286 287 287 287 287 288 289 291 291 292 292 293 293 292 292 292 291 292 291 291
286 285 285 284 284 284 284 285 284 284 284 284 284 284 284 284 285 285 285 285 285 285 285 284 283 284 284 284 284 284 284 284 284 284 285 285 285 285 285 286 285 285 285 286 286 286 286 287 289 290 290 291 291 292 291 290 290 290 290 290 291 291
284 284 284 284 284 284 284 284 283 283 283 283 284 284 284 284 285 285 284 284 284 284 284 284 283 283 283 283 282 282 283 283 283 283 284 283 284 284 284 284 285 285 285 285 285 285 285 286 287 288 289 290 291 290 289 288 289 289 289 290 290 290
284 284 283 283 284 284 283 283 283 283 283 284 284 283 283 284 284 284 283 283 283 283 283 283 282 281 281 281 281 281 282 282 282 282 282 282 282 282 283 283 284 284 284 283 283 284 284 284 285 287 288 289 289 289 288 288 288 287 288 288 289 289
284 284 284 284 283 283 283 282 282 283 283 283 283 282 282 283 283 283 283 283 283 283 282 282 281 281 280 280 280 281 280 280 281 281 281 281 281 281 282 282 282 282 283 283 283 283 283 283 284 285 286 287 288 288 287 287 287 287 287 288 288 289
284 283 283 283 283 282 282 282 282 281 282 282 281 281 282 282 282 283 282 282 282 282 281 281 280 280 279 279 280 280 280 280 280 280 280 280 281 281 281 281 281 280 281 282 281 281 282 281 282 283 285 286 287 288 287 287 287 286 286 287 287 287
282 282 282 282 282 282 281 281 281 281 281 280 280 280 281 282 282 282 282 281 281 280 280 280 279 278 279 279 279 279 279 279 279 279 279 279 280 279 279 279 280 280 280 281 281 281 280 281 281 282 284 285 286 287 287 286 286 287 287 287 287 287
282 282 282 281 281 280 280 279 279 280 280 279 279 280 281 281 281 281 280 279 279 279 278 278 278 278 278 278 278 278 278 279 278 278 278 279 278 278 278 278 279 279 280 281 281 280 280 280 281 281 282 284 285 286 287 286 286 286 286 286 286 286
281 281 281 281 279 279 279 276 276 277 277 277 279 280 279 279 279 279 278 278 277 277 277 277 277 277 278 278 278 277 277 278 277 277 278 277 277 277 277 278 278 278 279 280 281 281 280 280 280 281 281 283 284 286 286 287 287 288 287 286 285 286
280 279 279 279 278 277 276 275 275 276 276 276 279 278 278 277 277 277 276 276 276 276 276 276 277 277 277 277 277 276 276 276 277 277 278 277 277 277 277 278 278 278 278 279 280 281 282 280 281 282 282 282 284 285 286 287 287 287 287 287 286 286
276 276 276 276 275 275 274 273 273 274 274 276 277 276 275 275 275 275 275 275 275 275 275 276 276 276 276 276 276 276 277 276 276 277 277 276 276 277 277 277 278 278 278 278 279 280 281 282 282 281 282 283 284 285 286 286 286 287 287 286 287 286
272 272 273 275 275 275 273 272 272 271 273 274 274 274 274 275 275 275 275 275 275 274 274 274 275 276 276 276 277 276 276 276 276 276 276 277 277 277 277 277 278 278 278 278 279 280 281 282 282 281 281 282 283 283 284 285 285 285 285 285 286 285
270 270 272 272 272 272 271 269 270 270 271 271 272 273 274 275 275 275 275 274 274 274 274 274 275 276 276 277 277 277 277 276 276 276 276 276 276 276 277 277 278 278 278 279 279 280 280 280 281 281 281 282 282 283 283 284 284 285 285 285 284 284
268 268 268 269 270 270 269 268 267 268 269 271 272 273 274 274 274 273 273 273 273 274 274 275 275 275 276 277 277 277 277 278 278 277 277 277 277 277 278 278 278 278 279 279 279 279 279 279 280 280 281 281 282 283 284 284 284 284 284 284 283 282
266 265 266 267 268 266 266 265 266 268 270 271 273 274 274 272 272 272 272 272 272 273 274 275 275 275 275 276 277 278 278 278 278 278 279 279 279 278 278 278 278 279 279 279 278 278 278 279 279 280 283 283 284 284 283 283 283 284 283 283 283 282
264 264 264 265 265 264 264 265 267 269 271 272 273 273 270 270 270 270 270 270 271 271 272 272 273 274 275 275 276 276 278 279 281 281 279 279 281 282 282 281 279 279 279 279 279 280 278 279 280 283 284 284 284 285 285 285 285 285 283 283 284 283
263 262 262 263 264 263 265 266 268 270 271 273 271 270 270 269 269 268 268 269 269 270 270 271 272 273 274 275 275 276 276 277 279 282 283 283 282 283 283 283 284 284 284 282 281 282 284 284 284 284 284 284 284 285 285 285 286 285 285 284 283 281
261 261 261 262 262 263 266 267 269 271 270 268 269 270 269 269 268 267 267 268 268 269 270 271 271 272 273 274 275 275 276 276 277 278 282 283 283 283 284 284 284 285 285 285 284 283 282 284 284 284 284 284 284 285 285 285 285 285 285 284 284 280
260 261 261 261 263 264 266 267 267 266 266 267 268 269 268 268 268 267 267 268 268 269 269 270 270 271 272 272 273 274 275 275 276 276 277 280 283 284 284 284 284 285 285 285 285 285 284 284 284 285 284 284 284 284 285 285 285 285 285 284 282 280
260 260 260 261 263 265 264 262 262 263 265 267 268 268 268 268 267 267 267 267 268 268 268 269 270 270 271 272 272 273 274 275 276 276 277 277 278 280 282 284 284 284 285 285 285 284 284 284 284 284 284 284 284 285 285 285 284 285 285 284 281 279
258 259 261 264 263 261 260 260 261 263 264 265 266 267 266 265 265 265 266 267 267 267 267 268 269 270 270 271 271 272 272 273 275 276 277 277 277 277 278 279 281 283 284 283 283 284 284 284 284 284 284 284 284 285 285 285 283 281 281 281 279 278
259 259 260 260 259 258 258 259 262 263 263 264 265 264 263 262 263 263 263 264 265 265 266 267 268 269 269 269 270 271 272 274 275 276 276 277 278 278 278 278 280 281 282 282 283 283 283 283 283 283 283 284 284 285 285 281 280 279 277 277 276 276
Wind_Speed
7 7 8 7 7 7 7 6 6 6 7 6 6 7 5 4 5 5 5 4 4 4 5 6 6 5 5 5 5 5 6 7 6 7 7 7 7 6 7 7 8 8 8 8 9 8 9 9 9 9 9 9 9 9 10 10 10 10 12 12 11 12
7 8 8 9 9 8 7 7 7 10 8 8 8 6 5 6 7 6 7 5 4 5 5 5 4 5 5 5 5 6 6 7 7 7 7 8 7 7 7 7 8 8 8 8 8 8 8 9 9 8 9 9 9 10 9 10 9 11 12 11 9 9
7 8 7 6 5 5 7 8 9 7 7 9 9 10 10 10 9 8 7 6 6 6 6 6 6 6 5 6 5 6 7 6 6 6 7 5 8 7 7 7 8 8 8 8 8 9 9 9 9 8 8 9 10 10 10 10 10 12 11 10 11 10
7 6 6 4 7 9 10 8 8 9 10 8 8 8 8 9 10 9 8 6 6 7 6 6 5 5 5 5 6 6 6 6 6 6 6 7 8 6 7 8 7 7 7 8 8 9 9 9 10 9 8 9 10 11 10 10 10 11 12 10 12 10
5 6 8 8 8 7 8 8 9 8 8 8 8 8 9 8 7 6 5 6 7 8 7 7 7 7 6 6 6 6 6 6 7 6 6 7 7 6 6 7 7 7 7 8 8 8 9 9 9 8 8 10 10 12 11 11 11 12 12 12 13 11
4 6 8 9 8 8 9 7 7 8 8 8 8 9 9 8 7 7 6 6 7 6 6 6 5 5 5 6 6 7 7 7 7 6 6 6 6 7 7 6 7 7 7 8 8 8 9 8 8 8 8 10 11 11 12 11 11 12 12 13 12 11
7 7 5 6 7 7 6 8 8 8 8 8 9 8 7 7 7 7 7 8 8 7 7 8 7 8 8 8 7 8 7 7 6 6 6 6 6 7 6 6 6 7 7 8 8 8 8 8 8 9 9 10 10 11 12 11 11 12 12 12 12 11
4 5 6 5 5 4 4 5 6 6 6 7 6 7 8 8 7 7 7 7 8 9 10 9 9 10 10 9 9 9 9 8 7 7 6 5 7 7 6 7 6 6 8 7 8 8 9 8 8 9 9 9 9 10 11 11 11 12 12 12 11 11
3 3 3 4 4 4 3 5 6 6 6 7 7 7 7 8 7 8 8 8 8 9 10 10 10 9 9 9 9 8 9 9 9 8 9 7 7 7 7 7 7 7 7 8 8 8 9 9 8 9 10 10 10 11 11 11 11 12 11 12 12 11
1 1 1 2 3 3 4 5 5 5 6 6 7 7 7 7 8 8 8 7 8 8 8 8 8 8 8 8 8 8 8 9 9 9 8 7 8 8 7 8 8 8 7 8 8 8 7 8 8 9 9 10 10 10 11 10 11 11 11 11 11 11
1 1 1 3 1 3 5 5 5 5 5 4 5 5 6 7 6 7 7 7 8 8 7 7 8 7 8 8 8 9 9 9 9 9 9 9 9 8 8 8 7 9 9 8 7 8 7 7 8 7 8 9 10 9 10 11 11 12 12 11 11 11
3 2 3 1 5 6 5 5 5 5 5 5 5 5 6 6 6 6 6 6 6 7 7 7 7 8 7 7 8 8 8 8 9 9 9 9 9 9 9 9 9 8 9 10 10 8 8 8 7 9 13 12 11 10 10 10 11 10 11 11 12 11
3 2 2 4 4 4 3 3 3 3 3 4 5 6 6 6 6 5 5 6 6 6 6 6 6 6 7 6 7 7 8 8 8 8 8 8 8 9 9 8 9 9 9 10 10 10 9 9 8 13 13 14 16 13 11 11 11 10 11 11 12 13
2 4 4 4 4 4 4 5 4 4 5 5 5 6 5 5 5 5 5 5 5 5 5 6 6 6 7 6 7 7 7 7 6 7 8 8 7 8 7 8 8 9 9 9 9 9 9 9 11 14 15 16 16 15 12 11 11 11 10 10 11 11
3 3 3 3 4 4 5 5 5 6 6 6 6 5 5 5 4 5 5 5 4 5 6 6 7 7 7 7 7 7 7 6 6 6 6 7 7 7 7 8 8 8 8 8 10 10 9 9 11 13 16 16 16 17 15 11 11 11 11 11 11 11
2 2 2 2 2 2 3 4 4 5 5 6 5 5 5 5 5 5 6 6 7 7 7 8 8 9 9 8 7 7 7 7 7 7 7 6 6 7 8 6 7 8 8 8 9 10 9 9 11 15 15 16 17 17 15 12 12 12 12 12 11 10
2 3 4 4 4 4 4 4 4 5 5 4 5 5 6 6 6 6 7 8 7 8 9 9 9 10 9 9 8 9 8 8 9 9 7 7 7 8 9 9 9 9 6 8 8 9 10 8 11 13 15 15 17 16 14 11 11 11 11 11 10 10
1 2 3 3 4 4 4 5 5 5 5 4 4 5 5 5 5 7 8 9 9 10 9 9 10 9 10 10 11 10 11 11 10 11 10 10 9 8 7 8 6 8 10 8 8 10 12 9 9 14 14 15 16 18 10 9 10 11 11 11 10 10
1 1 1 2 2 2 4 4 4 4 4 3 4 5 5 6 8 10 10 10 10 11 10 10 11 11 10 10 11 11 11 12 13 12 9 11 11 11 10 10 10 9 10 12 10 9 12 11 9 12 17 17 18 15 9 8 9 9 10 11 10 9
1 1 1 0 0 2 3 3 4 4 5 8 8 10 9 10 10 10 10 10 10 10 10 10 9 10 10 10 10 11 11 10 8 8 7 8 11 12 11 10 12 11 8 9 12 9 10 13 12 12 18 17 16 14 10 9 9 10 9 9 10 8
0 1 1 1 4 5 5 6 6 8 9 9 9 9 9 10 10 11 12 12 11 10 9 9 8 8 9 9 9 8 10 10 9 9 8 8 8 10 9 9 10 11 10 8 10 12 11 12 13 12 15 17 15 12 8 8 8 10 9 8 9 8
3 4 7 9 7 6 7 6 7 7 8 8 7 7 8 8 9 9 9 10 10 10 9 8 9 9 9 11 12 10 9 9 9 9 8 9 8 9 10 9 9 12 12 9 8 10 9 11 13 11 14 16 16 15 10 8 8 8 10 9 9 8
4 4 4 4 5 6 7 7 8 8 6 7 7 7 7 7 8 9 9 9 10 10 10 8 7 10 11 8 9 10 10 8 9 10 9 10 9 9 10 11 10 11 12 10 8 8 9 9 12 13 14 15 16 16 13 8 9 9 9 9 9 8
6 6 6 6 8 8 7 7 8 7 7 7 7 6 7 7 8 8 8 9 10 10 10 10 10 8 8 9 8 10 11 9 7 8 9 7 8 10 12 11 10 10 12 11 9 8 9 9 12 11 13 15 16 16 15 9 9 9 8 10 9 8
6 6 6 6 7 7 7 5 5 5 5 6 7 6 7 7 8 8 8 9 10 10 10 10 10 10 8 9 8 9 12 10 9 9 8 8 9 10 11 11 9 9 11 12 11 8 7 8 9 10 10 13 16 16 16 16 13 14 10 10 10 10
4 5 4 5 5 5 4 4 4 5 5 7 6 7 7 7 7 8 9 9 9 10 10 10 11 10 9 9 9 9 10 11 10 10 8 7 8 9 10 10 8 8 10 11 12 11 7 5 7 7 10 11 14 16 17 17 17 16 10 9 9 9
6 6 6 4 3 3 3 4 5 6 7 7 8 8 9 8 9 9 10 10 10 10 10 11 11 10 10 9 7 9 10 11 9 10 10 7 7 8 9 10 8 8 10 10 11 11 10 8 6 7 8 13 14 16 17 18 18 17 17 12 9 8
4 4 5 6 4 4 4 4 5 7 8 9 9 9 9 10 11 12 12 12 11 12 12 14 14 11 10 10 8 8 8 9 10 10 11 9 8 9 9 10 9 9 9 10 11 11 11 10 8 7 8 8 11 10 13 16 17 16 15 15 12 10
3 3 4 7 5 6 5 5 5 5 7 8 9 9 10 10 10 12 11 11 12 12 11 12 11 12 12 10 9 9 9 8 8 9 10 9 9 9 10 10 9 10 9 10 10 10 10 10 9 8 7 7 7 7 8 8 8 11 12 10 5 4
2 4 4 6 7 6 6 6 6 7 7 7 8 8 8 9 10 12 12 12 11 11 11 11 13 13 12 12 10 10 11 10 8 10 11 11 9 10 11 10 10 10 9 10 10 10 10 11 9 8 7 7 7 8 7 7 7 7 5 5 5 4
3 3 4 5 4 5 6 7 7 7 8 8 8 7 9 11 13 12 12 11 10 11 10 10 11 11 12 13 12 10 10 10 11 11 12 12 9 9 12 11 11 11 9 9 10 10 11 12 11 8 7 9 12 11 9 8 7 6 6 6 7 3
2 3 3 3 3 5 6 7 7 7 7 7 5 7 10 12 12 11 11 10 10 10 10 10 10 10 10 11 12 13 13 13 16 14 12 14 15 19 20 17 13 12 9 9 10 9 10 13 13 15 19 19 18 18 18 17 16 13 8 7 10 6
2 2 3 5 5 6 7 7 7 8 7 5 8 9 9 10 10 10 10 10 10 12 13 12 12 11 10 10 11 12 13 14 13 16 21 21 22 21 18 20 24 26 24 16 13 12 17 20 23 25 23 20 19 19 19 18 16 14 12 10 6 6
4 5 6 5 5 6 7 7 7 6 7 9 8 8 8 8 9 10 10 10 11 13 12 11 12 13 12 13 11 11 12 13 15 17 14 14 16 19 21 19 19 20 20 22 20 16 12 13 16 21 20 19 18 18 18 16 14 13 13 11 11 5
5 5 5 5 6 7 7 7 7 8 8 8 7 8 9 9 9 10 11 11 12 12 13 12 12 13 13 14 14 14 12 13 14 15 18 16 13 15 18 21 20 18 19 19 22 23 20 20 20 22 21 20 18 18 16 13 14 13 12 12 8 5
4 4 5 6 6 6 7 8 8 8 8 7 9 9 9 9 9 11 10 11 12 13 12 11 11 12 13 13 13 13 14 14 13 14 14 16 17 15 11 13 16 17 17 19 21 21 21 21 20 20 20 18 17 17 15 12 8 11 12 10 5 4
4 4 5 6 6 6 7 7 8 7 7 8 9 9 9 10 11 10 13 19 16 11 12 11 11 11 12 13 13 12 13 13 13 13 13 13 14 15 14 13 10 10 13 14 14 15 18 19 18 17 16 16 16 15 13 12 6 5 5 4 2 3
3 4 3 3 4 6 6 7 7 6 7 8 8 10 11 10 10 11 10 10 12 11 10 11 11 11 11 12 12 12 13 13 13 13 12 12 13 13 13 13 12 10 9 16 17 18 17 18 17 16 15 15 15 13 12 6 5 3 0 2 1 3
Wind_Direction
49 48 53 51 58 59 56 54 55 58 53 45 56 56 34 11 354 343 340 343 324 318 316 313 314 301 288 282 278 287 279 274 272 263 260 273 262 255 252 248 249 247 245 241 247 247 246 246 246 244 246 242 246 243 247 245 241 243 244 241 238 244
43 43 42 43 39 39 36 40 42 41 30 37 32 41 40 35 33 18 22 1 358 338 329 322 307 301 299 297 303 294 279 278 280 278 277 267 273 257 256 254 252 249 247 244 247 251 252 251 249 245 246 246 245 247 247 246 240 244 245 246 237 238
36 32 31 35 42 45 42 39 39 35 28 29 21 22 12 16 13 14 7 355 9 14 4 341 333 325 322 316 304 289 282 285 281 277 276 297 277 270 264 258 255 255 251 249 245 246 247 246 249 242 244 245 249 249 249 253 244 246 249 246 247 239
36 34 34 41 47 38 37 29 37 32 31 19 14 17 23 11 7 4 352 348 357 17 2 354 343 333 334 325 314 298 295 293 291 286 295 279 280 282 274 269 269 263 259 256 253 251 248 249 250 245 237 242 246 249 245 250 247 249 253 248 250 242
34 32 32 33 37 33 31 31 33 28 20 18 15 20 8 5 350 334 327 347 6 11 3 353 353 346 338 334 322 319 312 306 299 297 288 284 287 283 267 273 273 270 267 263 259 256 256 251 251 247 240 244 246 251 251 243 243 244 246 244 245 242
54 40 31 27 23 24 25 24 25 23 23 14 10 14 360 356 354 341 350 8 17 9 4 357 328 337 339 351 338 330 324 315 310 308 292 285 290 288 281 269 271 269 264 263 264 260 261 262 257 254 246 247 248 251 252 249 245 247 247 248 248 243
43 37 32 30 16 16 20 24 22 18 8 11 9 359 351 352 347 348 353 5 12 16 15 10 6 6 5 1 352 342 331 322 312 307 302 302 295 287 289 283 269 269 264 264 265 267 262 256 257 256 255 252 252 256 258 256 253 250 249 249 248 244
25 27 23 16 6 359 12 26 30 18 8 4 2 354 349 349 343 345 355 8 12 9 10 5 3 4 358 352 349 346 339 333 331 325 314 301 299 300 289 287 284 270 273 265 268 267 269 268 262 258 258 258 257 255 257 258 257 257 255 254 250 246
35 10 358 343 339 335 358 27 24 18 9 360 358 355 349 340 343 348 2 5 11 4 4 1 358 352 348 347 340 335 338 340 336 334 333 328 313 310 309 300 290 280 271 274 271 269 268 268 262 262 262 261 259 258 258 259 257 257 256 254 253 249
13 355 313 302 294 315 8 20 19 6 357 352 349 348 346 342 344 349 357 3 2 6 356 352 341 343 339 334 333 333 334 335 337 337 330 329 330 323 314 309 304 294 281 278 274 270 268 267 266 262 263 262 262 264 264 262 262 261 259 258 254 250
230 248 265 243 261 18 15 12 3 357 345 329 330 332 336 332 339 345 351 353 359 352 341 335 336 332 332 332 333 336 336 335 331 329 330 332 330 326 320 313 310 308 303 293 281 283 272 268 268 264 264 270 267 262 266 265 262 262 263 261 256 249
208 217 221 354 28 21 12 4 351 342 337 333 336 336 329 340 333 338 336 343 337 328 327 325 323 323 323 326 331 328 325 323 324 324 325 324 321 319 319 322 319 311 305 307 303 296 290 280 273 267 262 257 264 270 268 268 265 263 262 262 262 256
198 199 66 36 25 9 351 337 324 312 314 327 332 335 325 331 325 331 330 329 319 313 311 318 314 313 319 314 312 312 314 314 312 312 309 307 309 308 309 310 309 307 305 303 303 304 299 292 285 280 276 275 268 265 268 266 267 262 259 259 258 261
85 41 30 12 360 358 352 341 336 333 344 338 335 331 317 322 316 317 316 305 301 306 315 315 317 322 321 323 321 316 308 301 302 303 301 303 305 301 300 299 291 292 292 291 288 285 284 283 281 280 284 280 277 272 269 269 265 264 259 256 257 259
46 32 18 12 356 349 334 329 336 344 334 332 323 320 324 324 319 314 320 324 319 332 334 333 336 332 331 333 322 312 309 303 301 303 308 307 296 293 293 288 290 286 285 283 286 284 279 278 277 279 280 278 276 274 271 269 266 265 262 257 254 256
16 14 353 320 307 305 293 306 306 310 309 302 311 327 331 338 341 343 345 345 351 350 348 348 345 342 338 334 333 331 328 330 327 318 306 303 307 305 302 299 292 290 287 285 287 289 288 282 283 287 282 279 277 275 273 268 267 265 262 261 256 254
357 6 5 360 346 333 338 333 333 319 318 317 330 337 338 345 339 354 352 347 347 349 350 347 343 337 335 334 334 333 332 332 327 328 330 325 322 320 319 317 315 307 299 297 293 291 288 285 276 281 283 282 284 283 277 271 268 265 264 260 256 252
8 352 324 315 344 335 337 324 321 329 316 311 326 334 341 341 350 355 353 351 351 349 347 345 340 337 336 336 336 336 334 333 332 329 329 325 321 316 310 306 300 308 312 306 303 305 302 300 294 294 294 293 293 293 285 276 269 267 266 264 258 254
176 250 249 307 296 310 328 315 312 307 305 333 351 352 349 355 5 0 354 348 345 345 344 344 339 335 334 334 333 331 331 331 328 328 333 326 323 322 323 319 315 314 313 311 310 305 302 302 304 302 303 304 299 298 286 279 273 269 268 266 263 256
186 210 182 212 212 342 329 329 333 332 359 5 1 2 359 6 2 353 348 342 340 337 337 336 336 329 328 328 326 322 317 315 309 307 320 313 312 311 311 311 309 307 304 301 300 299 298 298 300 297 302 299 297 292 287 282 277 273 270 272 266 260
185 179 152 131 32 2 356 354 1 10 9 4 359 359 356 355 349 347 341 334 331 330 328 327 325 321 318 316 312 313 310 311 308 304 306 297 295 294 299 302 300 299 298 291 289 296 292 291 295 292 292 294 292 289 279 280 275 279 274 271 271 260
39 33 25 21 6 348 360 4 13 17 5 353 351 351 348 341 338 327 323 322 322 322 323 324 323 318 319 316 313 313 307 307 308 306 308 303 300 299 303 302 296 296 295 295 288 288 286 290 292 291 287 289 290 286 281 275 276 272 278 271 270 274
59 48 38 15 2 360 2 9 10 1 355 343 343 337 332 327 323 322 320 319 318 319 318 317 315 312 310 304 300 302 302 303 301 304 306 303 303 301 298 298 299 297 295 296 287 282 279 273 282 288 288 286 286 283 282 279 271 271 272 277 271 268
19 15 19 20 12 7 6 11 4 341 338 335 327 321 328 326 321 318 317 315 315 313 313 311 310 303 297 301 301 301 298 295 287 286 290 291 291 296 297 298 301 300 297 298 291 275 274 271 268 280 288 284 280 280 276 271 268 264 270 273 271 267
13 11 7 3 10 5 356 9 349 321 316 312 303 322 325 320 318 315 312 311 309 309 307 306 304 304 304 300 298 295 295 298 300 294 291 292 295 294 293 292 294 295 295 298 296 285 269 274 277 267 279 284 283 280 280 273 272 270 265 263 265 266
10 0 2 1 2 358 348 359 331 313 310 306 318 331 326 324 322 315 313 310 309 310 309 308 306 303 300 298 299 296 293 298 300 297 290 288 288 292 294 294 295 295 295 299 300 299 291 269 276 271 267 274 280 283 280 279 274 272 265 261 262 266
352 346 337 344 357 350 355 354 345 322 321 320 342 331 330 327 324 322 317 316 313 313 310 308 303 302 299 295 289 293 296 296 296 297 297 290 283 280 282 285 289 287 289 293 291 295 298 294 281 280 279 281 282 283 282 279 277 274 273 270 266 256
354 338 320 321 349 2 360 357 354 341 325 334 333 330 327 328 328 326 323 320 317 315 317 311 307 305 297 295 289 277 276 280 290 290 292 291 282 281 279 284 288 286 284 283 287 290 293 296 296 289 287 286 287 283 279 278 277 274 270 267 267 254
332 322 329 328 338 355 352 358 351 335 325 329 324 324 324 324 325 319 319 317 315 313 312 308 305 309 306 301 297 289 284 276 277 280 280 280 279 281 278 275 278 280 282 282 286 291 293 294 294 292 291 285 285 284 284 281 279 275 272 268 257 242
357 345 339 330 331 348 343 340 337 329 325 318 317 315 318 323 324 319 314 312 308 306 306 303 301 300 300 300 299 296 294 287 273 276 277 281 279 283 281 277 273 271 273 283 285 291 293 290 290 287 290 291 291 294 286 283 282 277 264 251 251 239
1 342 334 314 326 337 332 330 326 324 321 317 312 316 334 330 321 316 310 306 304 302 303 299 299 298 298 297 295 284 275 280 283 278 272 261 255 249 266 274 271 268 264 266 273 282 290 288 284 278 288 291 290 287 287 286 277 263 251 241 236 237
352 328 310 309 327 333 328 325 320 313 307 303 320 353 340 326 320 317 314 312 307 305 302 299 294 292 291 292 295 297 291 270 266 259 262 279 267 259 250 249 259 264 268 266 262 253 260 276 281 290 292 290 288 284 278 275 271 264 249 236 232 222
328 322 337 336 339 330 324 317 314 307 309 348 358 345 328 322 318 313 310 311 309 306 305 301 301 300 295 290 294 297 298 301 293 275 257 251 267 271 259 256 260 263 264 261 272 268 258 261 273 284 289 288 286 283 280 279 274 262 244 230 220 227
357 357 345 332 321 312 316 317 309 327 353 347 329 323 315 313 311 309 308 307 305 306 304 301 300 301 299 301 298 295 298 301 304 305 285 257 255 266 275 268 262 261 260 260 263 269 276 268 267 277 283 285 285 281 279 274 266 249 236 231 218 217
348 338 327 319 314 315 319 328 336 339 323 310 313 317 313 306 303 303 303 303 302 301 303 302 301 302 302 302 304 304 301 299 299 300 305 303 283 260 264 276 275 268 262 262 267 266 266 272 279 281 282 283 283 281 276 264 251 244 235 232 228 210
337 320 310 300 299 323 341 330 314 310 301 311 319 312 303 304 304 300 299 301 302 301 299 298 297 298 299 298 297 297 299 296 294 293 292 296 304 302 273 252 256 269 272 267 266 266 269 272 277 279 278 278 278 278 267 249 240 241 240 233 223 193
311 299 298 322 341 339 318 306 301 299 315 319 309 313 318 313 306 300 296 297 298 294 292 292 291 290 291 294 293 293 291 287 284 282 282 284 289 291 293 299 285 266 264 272 276 270 268 271 274 275 274 273 275 271 251 238 234 241 254 256 117 161
290 285 316 342 326 309 299 295 298 316 317 314 326 324 312 306 303 301 297 297 296 291 286 287 290 291 290 290 289 288 286 284 284 284 283 282 279 278 283 287 283 284 280 277 274 269 268 268 270 273 272 273 273 255 228 226 225 225 307 128 86 107